User: anonymous   Login
Location: Caltech
(34.1382°N, 118.1253°W)
Time: 03:53:50
(UTC-07:00)
Language:

Cosmos 1975 - Orbit

View from above orbital plane
View from above orbital plane
View from above satellite
View from above satellite

Ground track
Ground track

The orbit data is extracted from the following two-line orbital elements,

1 19573U 88093A   17142.92526287 +.00000378 +00000-0 +25090-4 0  9997
2 19573 082.5212 009.9279 0015156 030.4649 329.7454 15.04152817534872
Epoch (UTC): 22 May 2017 22:12:22
Eccentricity: 0.0015156
inclination: 82.5212°
perigee height: 543 km
apogee height: 564 km
right ascension of ascending node: 9.9279°
argument of perigee: 30.4649°
revolutions per day: 15.04152817
mean anomaly at epoch: 329.7454°
orbit number at epoch: 53487

The dashed part of the orbit path shows where the satellite is in the earth's shadow,  

DLR